Weather History for KSMQ - January, 2012

Change the Weather History Date:

Wednesday, January 25, 2012

  Actual Average (KEWR) Record (KEWR)
Temperature  
Mean Temperature 40 °F 32 °F  
Max Temperature 46 °F 39 °F 59 °F (2010)
Min Temperature 34 °F 24 °F -1 °F (1935)
Degree Days  
Heating Degree Days 24 33  
Month to date heating degree days 838  
Since 1 July heating degree days 2588  
Cooling Degree Days 0 0  
Month to date cooling degree days 0  
Year to date cooling degree days 0  
Moisture  
Dew Point 25 °F    
Average Humidity 58    
Maximum Humidity 73    
Minimum Humidity 44    
Precipitation  
Precipitation 0.00 in 0.10 in 1.55 in (1978)
Month to date precipitation 2.89  
Year to date precipitation 2.89  
Snow  
Snow 0.00 in 0.20 in 5.50 in (2000)
Month to date snowfall 6.2  
Since 1 July snowfall 12.0  
Snow Depth -    
Sea Level Pressure  
Sea Level Pressure 30.24 in    
Wind  
Wind Speed 6 mph (NNW)    
Max Wind Speed 14 mph    
Max Gust Speed 18 mph    
Visibility 10 miles    
Events      
T = Trace of Precipitation, MM = Missing Value Source: NWS Daily Summary

Daily Weather History Graph

Daily Weather History Graph

Search for Another Location

Airport or City:

Trip Planner

Search our weather history database for the weather conditions in past years. The results will help you decide how hot, cold, wet, or windy it might be!

Date:

Astronomy

Jan. 25, 2012 Rise Set
Actual Time 7:14 AM EST 5:07 PM EST
Civil Twilight 6:45 AM EST 5:36 PM EST
Nautical Twilight 6:12 AM EST 6:09 PM EST
Astronomical Twilight 5:39 AM EST 6:42 PM EST
Moon 8:12 AM EST (1/25) 7:59 PM EST (1/25)
Length of Visible Light 10h 51m
Length of Day
9h 52m
Waxing Crescent, 6% of the Moon is Illuminated
Jan 25
Waxing Crescent
Jan 30
First Quarter
Feb 7
Full
Feb 14
Last Quarter
Feb 21
New

Hourly Weather History & Observations

Time (EST) Temp. Windchill Dew Point Humidity Pressure Visibility Wind Dir Wind Speed Gust Speed Precip Events Conditions
12:53 AM 42.1 °F 37.7 °F 28.0 °F 58% 30.15 in 10.0 mi WNW 6.9 mph - N/A   Overcast
1:53 AM 42.1 °F 36.1 °F 27.0 °F 55% 30.18 in 10.0 mi NNW 10.4 mph - N/A   Overcast
2:53 AM 39.9 °F 33.4 °F 25.0 °F 55% 30.21 in 10.0 mi NNW 10.4 mph 18.4 mph N/A   Overcast
3:53 AM 39.0 °F 31.0 °F 23.0 °F 53% 30.21 in 10.0 mi NW 13.8 mph - N/A   Overcast
4:53 AM 37.9 °F 34.4 °F 23.0 °F 55% 30.22 in 10.0 mi NW 4.6 mph - N/A   Overcast
5:53 AM 37.4 °F 32.1 °F 24.8 °F 60% 30.27 in 10.0 mi Variable 6.9 mph - N/A   Overcast
6:53 AM 37.9 °F 35.5 °F 25.0 °F 60% 30.28 in 10.0 mi NW 3.5 mph - N/A   Overcast
7:53 AM 37.9 °F - 26.1 °F 62% 30.28 in 10.0 mi Calm Calm - N/A   Overcast
8:53 AM 37.9 °F 31.5 °F 24.1 °F 57% 30.31 in 10.0 mi NW 9.2 mph 18.4 mph N/A   Overcast
9:53 AM 39.9 °F 32.9 °F 24.1 °F 53% 30.32 in 10.0 mi North 11.5 mph 17.3 mph N/A   Overcast
10:53 AM 41.0 °F 35.2 °F 24.1 °F 51% 30.31 in 10.0 mi NW 9.2 mph - N/A   Clear
11:53 AM 42.1 °F 36.1 °F 24.1 °F 49% 30.28 in 10.0 mi NNW 10.4 mph 16.1 mph N/A   Clear
12:53 PM 44.1 °F 39.0 °F 25.0 °F 47% 30.26 in 10.0 mi NW 9.2 mph - N/A   Clear
1:53 PM 44.1 °F 40.1 °F 24.1 °F 45% 30.23 in 10.0 mi NNW 6.9 mph - N/A   Clear
2:53 PM 46.0 °F - 25.0 °F 44% 30.22 in 10.0 mi Calm Calm - N/A   Clear
3:53 PM 45.0 °F - 25.0 °F 46% 30.22 in 10.0 mi Calm Calm - N/A   Clear
4:53 PM 43.0 °F 41.3 °F 25.0 °F 49% 30.23 in 10.0 mi Variable 3.5 mph - N/A   Clear
5:53 PM 36.0 °F - 26.1 °F 67% 30.25 in 10.0 mi Calm Calm - N/A   Clear
6:53 PM 35.1 °F - 27.0 °F 72% 30.24 in 10.0 mi Calm Calm - N/A   Clear
7:53 PM 35.1 °F 32.2 °F 26.1 °F 70% 30.23 in 10.0 mi NNW 3.5 mph - N/A   Clear
8:53 PM 37.0 °F 33.3 °F 25.0 °F 62% 30.22 in 10.0 mi North 4.6 mph - N/A   Clear
9:53 PM 35.1 °F - 26.1 °F 70% 30.24 in 10.0 mi Calm Calm - N/A   Clear
10:53 PM 35.1 °F - 25.0 °F 67% 30.23 in 10.0 mi Calm Calm - N/A   Clear
11:53 PM 34.0 °F - 26.1 °F 73% 30.22 in 10.0 mi Calm Calm - N/A   Mostly Cloudy